Location: Krasnoyarskiy Pitomnik
(51.1333°N, 71.6167°E)
Time: 00:01:53
(UTC+00:00)

deb Explorer IX - Pass Details

Date: 22 April 2024
Orbit: 513 x 891 km, 38.7° (Epoch: 21 May)

Event Time Altitude Azimuth Distance (km) Brightness Sun altitude
Rises 05:10:28 0° 209° (SSW) 3,320 ? 44.1°
Reaches altitude 10° 05:14:03 10° 186° (S) 2,461 ? 44.5°
Maximum altitude 05:17:09 15° 154° (SSE) 2,195 ? 44.8°
Drops below altitude 10° 05:20:21 10° 122° (ESE) 2,552 ? 45.1°
Sets 05:24:10 0° 100° (E) 3,521 ? 45.5°
